Time,TemperatureF,DewpointF,PressureIn,WindDirection,WindDirectionDegrees,WindSpeedMPH,WindSpeedGustMPH,Humidity,HourlyPrecipIn,Conditions,Clouds,dailyrainin,SoftwareType,DateUTC
2013-02-05 00:02:00,59.0,58.5,29.69,ESE,112,3.0,6.0,98,0.00,,,0.00,meteohub,2013-02-05 08:02:00,
2013-02-05 00:08:00,58.8,58.3,29.69,East,97,5.0,5.0,98,0.00,,,0.00,meteohub,2013-02-05 08:08:00,
2013-02-05 00:14:00,58.8,58.3,29.69,ESE,110,3.0,4.0,98,0.00,,,0.00,meteohub,2013-02-05 08:14:00,
2013-02-05 00:20:00,58.8,58.3,29.69,SSE,156,0.0,6.0,98,0.00,,,0.00,meteohub,2013-02-05 08:20:00,
2013-02-05 00:26:00,58.8,58.3,29.69,East,101,3.0,6.0,98,0.00,,,0.00,meteohub,2013-02-05 08:26:00,
2013-02-05 00:32:00,58.8,57.9,29.69,East,93,0.0,6.0,97,0.00,,,0.00,meteohub,2013-02-05 08:32:00,
2013-02-05 00:38:00,58.6,57.7,29.69,East,100,3.0,6.0,97,0.00,,,0.00,meteohub,2013-02-05 08:38:00,
2013-02-05 00:44:00,58.5,57.6,29.69,East,85,0.0,6.0,97,0.00,,,0.00,meteohub,2013-02-05 08:44:00,
2013-02-05 00:50:00,58.5,57.6,29.69,NE,35,0.0,6.0,97,0.00,,,0.00,meteohub,2013-02-05 08:50:00,
2013-02-05 00:56:00,58.5,57.4,29.69,North,353,0.0,6.0,96,0.00,,,0.00,meteohub,2013-02-05 08:56:00,
2013-02-05 01:02:00,58.5,57.4,29.69,North,8,2.0,3.0,96,0.00,,,0.00,meteohub,2013-02-05 09:02:00,
2013-02-05 01:08:00,58.5,57.0,29.69,NNE,17,2.0,3.0,95,0.00,,,0.00,meteohub,2013-02-05 09:08:00,
2013-02-05 01:14:00,58.5,56.7,29.69,NNE,16,3.0,4.0,94,0.00,,,0.00,meteohub,2013-02-05 09:14:00,
2013-02-05 01:20:00,58.5,56.7,29.69,North,353,3.0,4.0,94,0.00,,,0.00,meteohub,2013-02-05 09:20:00,
2013-02-05 01:26:00,58.5,56.5,29.66,North,5,0.0,4.0,93,0.00,,,0.00,meteohub,2013-02-05 09:26:00,
2013-02-05 01:32:00,58.5,56.1,29.66,North,5,0.0,4.0,92,0.00,,,0.00,meteohub,2013-02-05 09:32:00,
2013-02-05 01:38:00,58.5,56.1,29.66,North,1,0.0,4.0,92,0.00,,,0.00,meteohub,2013-02-05 09:38:00,
2013-02-05 01:45:00,58.6,56.3,29.69,ENE,69,0.0,0.0,92,0.00,,,0.00,meteohub,2013-02-05 09:45:00,
2013-02-05 01:51:00,58.6,56.3,29.69,East,86,0.0,0.0,92,0.00,,,0.00,meteohub,2013-02-05 09:51:00,
2013-02-05 01:57:00,58.6,56.3,29.66,SE,143,0.0,0.0,92,0.00,,,0.00,meteohub,2013-02-05 09:57:00,
2013-02-05 02:03:00,58.5,55.8,29.66,SSE,148,0.0,0.0,91,0.00,,,0.00,meteohub,2013-02-05 10:03:00,
2013-02-05 02:09:00,58.5,55.6,29.66,SE,142,0.0,0.0,90,0.00,,,0.00,meteohub,2013-02-05 10:09:00,
2013-02-05 02:15:00,58.5,55.6,29.66,East,92,0.0,3.0,90,0.00,,,0.00,meteohub,2013-02-05 10:15:00,
2013-02-05 02:21:00,58.6,55.8,29.66,East,87,0.0,3.0,90,0.00,,,0.00,meteohub,2013-02-05 10:21:00,
2013-02-05 02:27:00,58.6,55.8,29.66,East,87,0.0,0.0,90,0.00,,,0.00,meteohub,2013-02-05 10:27:00,
2013-02-05 02:33:00,58.8,55.9,29.66,East,87,0.0,0.0,90,0.00,,,0.00,meteohub,2013-02-05 10:33:00,
2013-02-05 02:39:00,58.6,55.8,29.66,East,87,0.0,0.0,90,0.00,,,0.00,meteohub,2013-02-05 10:39:00,
2013-02-05 02:45:00,58.6,55.8,29.66,East,87,0.0,0.0,90,0.00,,,0.00,meteohub,2013-02-05 10:45:00,
2013-02-05 02:51:00,58.6,55.9,29.66,East,87,0.0,0.0,91,0.00,,,0.00,meteohub,2013-02-05 10:51:00,
2013-02-05 02:57:00,58.8,56.1,29.66,East,87,0.0,0.0,91,0.00,,,0.00,meteohub,2013-02-05 10:57:00,
2013-02-05 03:03:00,58.8,56.1,29.66,East,79,0.0,0.0,91,0.00,,,0.00,meteohub,2013-02-05 11:03:00,
2013-02-05 03:09:00,59.0,56.1,29.66,East,79,0.0,0.0,90,0.00,,,0.00,meteohub,2013-02-05 11:09:00,
2013-02-05 03:15:00,59.0,56.1,29.66,East,79,0.0,0.0,90,0.00,,,0.00,meteohub,2013-02-05 11:15:00,
2013-02-05 03:21:00,59.0,56.1,29.66,East,79,0.0,0.0,90,0.00,,,0.00,meteohub,2013-02-05 11:21:00,
2013-02-05 03:27:00,59.0,56.1,29.66,ESE,105,0.0,0.0,90,0.00,,,0.00,meteohub,2013-02-05 11:27:00,
2013-02-05 03:33:00,59.0,56.1,29.66,East,82,0.0,0.0,90,0.00,,,0.00,meteohub,2013-02-05 11:33:00,
2013-02-05 03:39:00,59.2,56.3,29.66,East,82,0.0,0.0,90,0.00,,,0.00,meteohub,2013-02-05 11:39:00,
2013-02-05 03:45:00,59.2,56.3,29.66,ENE,78,0.0,0.0,90,0.00,,,0.00,meteohub,2013-02-05 11:45:00,
2013-02-05 03:52:00,58.8,55.6,29.66,SE,130,0.0,0.0,89,0.00,,,0.00,meteohub,2013-02-05 11:52:00,
2013-02-05 03:58:00,59.0,55.4,29.66,East,96,0.0,0.0,88,0.00,,,0.00,meteohub,2013-02-05 11:58:00,
2013-02-05 04:04:00,59.0,55.4,29.66,East,100,0.0,0.0,88,0.00,,,0.00,meteohub,2013-02-05 12:04:00,
2013-02-05 04:10:00,59.0,55.4,29.66,East,95,0.0,4.0,88,0.00,,,0.00,meteohub,2013-02-05 12:10:00,
2013-02-05 04:16:00,58.8,55.2,29.66,East,95,0.0,4.0,88,0.00,,,0.00,meteohub,2013-02-05 12:16:00,
2013-02-05 04:22:00,58.8,55.2,29.66,ENE,67,4.0,4.0,88,0.00,,,0.00,meteohub,2013-02-05 12:22:00,
2013-02-05 04:28:00,58.6,55.0,29.63,ENE,76,0.0,5.0,88,0.00,,,0.00,meteohub,2013-02-05 12:28:00,
2013-02-05 04:34:00,58.5,54.7,29.63,East,88,0.0,6.0,87,0.00,,,0.00,meteohub,2013-02-05 12:34:00,
2013-02-05 04:40:00,58.5,54.7,29.63,ENE,61,0.0,6.0,87,0.00,,,0.00,meteohub,2013-02-05 12:40:00,
2013-02-05 04:46:00,58.5,54.7,29.63,ENE,58,4.0,5.0,87,0.00,,,0.00,meteohub,2013-02-05 12:46:00,
2013-02-05 04:52:00,58.3,54.5,29.63,NE,49,4.0,6.0,87,0.00,,,0.00,meteohub,2013-02-05 12:52:00,
2013-02-05 04:58:00,58.3,54.5,29.63,NE,48,3.0,6.0,87,0.00,,,0.00,meteohub,2013-02-05 12:58:00,
2013-02-05 05:04:00,58.5,54.3,29.63,East,83,0.0,6.0,86,0.00,,,0.00,meteohub,2013-02-05 13:04:00,
2013-02-05 05:10:00,58.5,54.3,29.63,ENE,77,4.0,5.0,86,0.00,,,0.00,meteohub,2013-02-05 13:10:00,
2013-02-05 05:16:00,58.5,54.3,29.63,NNE,29,0.0,4.0,86,0.00,,,0.00,meteohub,2013-02-05 13:16:00,
2013-02-05 05:22:00,58.5,54.3,29.63,NNE,29,0.0,4.0,86,0.00,,,0.00,meteohub,2013-02-05 13:22:00,
2013-02-05 05:28:00,58.6,54.5,29.63,ESE,114,0.0,4.0,86,0.00,,,0.00,meteohub,2013-02-05 13:28:00,
2013-02-05 05:34:00,58.6,54.5,29.63,ESE,114,0.0,3.0,86,0.00,,,0.00,meteohub,2013-02-05 13:34:00,
2013-02-05 05:40:00,58.8,54.7,29.63,ESE,114,0.0,3.0,86,0.00,,,0.00,meteohub,2013-02-05 13:40:00,
2013-02-05 05:46:00,58.8,55.0,29.63,ESE,114,0.0,0.0,87,0.00,,,0.00,meteohub,2013-02-05 13:46:00,
2013-02-05 05:52:00,58.8,55.0,29.63,ESE,114,0.0,0.0,87,0.00,,,0.00,meteohub,2013-02-05 13:52:00,
2013-02-05 05:58:00,58.8,55.0,29.66,ESE,114,0.0,0.0,87,0.00,,,0.00,meteohub,2013-02-05 13:58:00,
2013-02-05 06:04:00,58.8,55.0,29.66,ESE,114,0.0,0.0,87,0.00,,,0.00,meteohub,2013-02-05 14:04:00,
2013-02-05 06:10:00,58.8,55.0,29.66,SE,146,0.0,0.0,87,0.00,,,0.00,meteohub,2013-02-05 14:10:00,
2013-02-05 06:16:00,58.8,55.0,29.66,NE,54,0.0,0.0,87,0.00,,,0.00,meteohub,2013-02-05 14:16:00,
2013-02-05 06:22:00,58.5,54.3,29.66,ENE,65,0.0,4.0,86,0.00,,,0.00,meteohub,2013-02-05 14:22:00,
2013-02-05 06:28:00,58.6,54.5,29.66,South,171,0.0,4.0,86,0.00,,,0.00,meteohub,2013-02-05 14:28:00,
2013-02-05 06:35:00,58.5,54.7,29.66,NNE,27,0.0,4.0,87,0.00,,,0.00,meteohub,2013-02-05 14:35:00,
2013-02-05 06:41:00,58.5,54.7,29.66,NNE,27,0.0,0.0,87,0.00,,,0.00,meteohub,2013-02-05 14:41:00,
2013-02-05 06:47:00,58.5,54.7,29.66,NNE,27,0.0,0.0,87,0.00,,,0.00,meteohub,2013-02-05 14:47:00,
2013-02-05 06:53:00,58.5,54.7,29.66,NNE,27,0.0,0.0,87,0.00,,,0.00,meteohub,2013-02-05 14:53:00,
2013-02-05 06:59:00,58.5,54.7,29.66,NNE,27,0.0,0.0,87,0.00,,,0.00,meteohub,2013-02-05 14:59:00,
2013-02-05 07:05:00,58.5,54.7,29.66,NNE,23,0.0,0.0,87,0.00,,,0.00,meteohub,2013-02-05 15:05:00,
2013-02-05 07:11:00,58.6,54.9,29.69,NNE,23,0.0,0.0,87,0.00,,,0.00,meteohub,2013-02-05 15:11:00,
2013-02-05 07:17:00,58.6,54.9,29.69,NNE,23,0.0,0.0,87,0.00,,,0.00,meteohub,2013-02-05 15:17:00,
2013-02-05 07:23:00,58.6,54.9,29.69,NNE,19,0.0,4.0,87,0.00,,,0.00,meteohub,2013-02-05 15:23:00,
2013-02-05 07:29:00,58.5,54.7,29.69,NNW,339,0.0,4.0,87,0.00,,,0.00,meteohub,2013-02-05 15:29:00,
2013-02-05 07:35:00,58.1,54.0,29.69,North,11,0.0,5.0,86,0.00,,,0.00,meteohub,2013-02-05 15:35:00,
2013-02-05 07:41:00,58.3,54.1,29.69,NNE,16,0.0,5.0,86,0.00,,,0.00,meteohub,2013-02-05 15:41:00,
2013-02-05 07:47:00,58.3,54.1,29.69,North,6,0.0,5.0,86,0.00,,,0.00,meteohub,2013-02-05 15:47:00,
2013-02-05 07:53:00,58.3,54.1,29.69,North,0,4.0,5.0,86,0.00,,,0.00,meteohub,2013-02-05 15:53:00,
2013-02-05 07:59:00,58.6,54.5,29.69,NNE,24,0.0,5.0,86,0.00,,,0.00,meteohub,2013-02-05 15:59:00,
2013-02-05 08:05:00,59.0,54.9,29.69,North,6,0.0,4.0,86,0.00,,,0.00,meteohub,2013-02-05 16:05:00,
2013-02-05 08:11:00,59.2,55.0,29.69,East,82,2.0,4.0,86,0.00,,,0.00,meteohub,2013-02-05 16:11:00,
2013-02-05 08:17:00,59.4,55.2,29.69,ENE,71,3.0,4.0,86,0.00,,,0.00,meteohub,2013-02-05 16:17:00,
2013-02-05 08:23:00,59.5,55.4,29.69,ENE,70,3.0,4.0,86,0.00,,,0.00,meteohub,2013-02-05 16:23:00,
2013-02-05 08:29:00,59.7,55.6,29.69,NE,45,5.0,5.0,86,0.00,,,0.00,meteohub,2013-02-05 16:29:00,
2013-02-05 08:35:00,59.5,55.0,29.69,ENE,57,6.0,8.0,85,0.00,,,0.00,meteohub,2013-02-05 16:35:00,
2013-02-05 08:41:00,59.7,55.2,29.72,ENE,73,4.0,8.0,85,0.00,,,0.00,meteohub,2013-02-05 16:41:00,
2013-02-05 08:47:00,59.9,55.4,29.72,ENE,66,0.0,8.0,85,0.00,,,0.00,meteohub,2013-02-05 16:47:00,
2013-02-05 08:53:00,60.4,55.9,29.72,NE,37,3.0,8.0,85,0.00,,,0.00,meteohub,2013-02-05 16:53:00,
2013-02-05 08:59:00,61.0,56.5,29.72,NE,37,0.0,6.0,85,0.00,,,0.00,meteohub,2013-02-05 16:59:00,
2013-02-05 09:05:00,61.3,56.5,29.72,NE,37,0.0,3.0,84,0.00,,,0.00,meteohub,2013-02-05 17:05:00,
2013-02-05 09:11:00,61.9,57.0,29.72,NE,37,0.0,0.0,84,0.00,,,0.00,meteohub,2013-02-05 17:11:00,
2013-02-05 09:17:00,61.7,56.8,29.72,NE,37,0.0,0.0,84,0.00,,,0.00,meteohub,2013-02-05 17:17:00,
2013-02-05 09:23:00,62.2,57.0,29.72,East,93,3.0,0.0,83,0.00,,,0.00,meteohub,2013-02-05 17:23:00,
2013-02-05 09:29:00,63.0,57.4,29.72,ESE,105,3.0,4.0,82,0.00,,,0.00,meteohub,2013-02-05 17:29:00,
2013-02-05 09:35:00,63.1,56.5,29.72,ENE,72,0.0,4.0,79,0.00,,,0.00,meteohub,2013-02-05 17:35:00,
2013-02-05 09:42:00,63.7,56.3,29.72,East,86,0.0,4.0,77,0.00,,,0.00,meteohub,2013-02-05 17:42:00,
2013-02-05 09:47:00,63.7,55.6,29.72,ENE,74,0.0,4.0,75,0.00,,,0.00,meteohub,2013-02-05 17:47:00,
2013-02-05 09:52:00,64.2,55.8,29.72,East,83,4.0,4.0,74,0.00,,,0.00,meteohub,2013-02-05 17:52:00,
2013-02-05 09:58:00,64.4,54.3,29.72,NE,38,0.0,5.0,70,0.00,,,0.00,meteohub,2013-02-05 17:58:00,
2013-02-05 10:04:00,64.2,52.2,29.72,North,9,0.0,6.0,65,0.00,,,0.00,meteohub,2013-02-05 18:04:00,
2013-02-05 10:10:00,64.6,51.6,29.72,NE,54,0.0,6.0,63,0.00,,,0.00,meteohub,2013-02-05 18:10:00,
2013-02-05 10:16:00,64.8,51.4,29.72,ESE,109,0.0,4.0,62,0.00,,,0.00,meteohub,2013-02-05 18:16:00,
2013-02-05 10:22:00,64.4,49.8,29.72,ESE,109,0.0,4.0,59,0.00,,,0.00,meteohub,2013-02-05 18:22:00,
2013-02-05 10:28:00,64.8,48.7,29.72,ESE,109,0.0,4.0,56,0.00,,,0.00,meteohub,2013-02-05 18:28:00,
2013-02-05 10:34:00,64.4,47.5,29.72,SSE,151,0.0,4.0,54,0.00,,,0.00,meteohub,2013-02-05 18:34:00,
2013-02-05 10:40:00,63.9,46.9,29.72,SSW,205,0.0,4.0,54,0.00,,,0.00,meteohub,2013-02-05 18:40:00,
2013-02-05 10:46:00,63.5,47.1,29.72,South,179,3.0,4.0,55,0.00,,,0.00,meteohub,2013-02-05 18:46:00,
2013-02-05 10:52:00,63.3,47.8,29.72,South,187,4.0,4.0,57,0.00,,,0.00,meteohub,2013-02-05 18:52:00,
2013-02-05 10:58:00,63.1,49.1,29.72,South,188,0.0,5.0,60,0.00,,,0.00,meteohub,2013-02-05 18:58:00,
2013-02-05 11:04:00,63.1,49.1,29.72,South,185,0.0,5.0,60,0.00,,,0.00,meteohub,2013-02-05 19:04:00,
2013-02-05 11:10:00,63.1,47.7,29.72,SSW,211,0.0,4.0,57,0.00,,,0.00,meteohub,2013-02-05 19:10:00,
2013-02-05 11:16:00,63.7,47.7,29.72,SSW,210,0.0,4.0,56,0.00,,,0.00,meteohub,2013-02-05 19:16:00,
2013-02-05 11:22:00,63.5,46.0,29.72,SSW,210,0.0,3.0,53,0.00,,,0.00,meteohub,2013-02-05 19:22:00,
2013-02-05 11:28:00,64.0,47.1,29.72,SSW,210,0.0,0.0,54,0.00,,,0.00,meteohub,2013-02-05 19:28:00,
2013-02-05 11:34:00,64.2,47.3,29.72,SSW,210,0.0,0.0,54,0.00,,,0.00,meteohub,2013-02-05 19:34:00,
2013-02-05 11:40:00,64.2,47.3,29.72,WSW,239,0.0,0.0,54,0.00,,,0.00,meteohub,2013-02-05 19:40:00,
2013-02-05 11:46:00,64.2,46.8,29.72,WSW,239,0.0,0.0,53,0.00,,,0.00,meteohub,2013-02-05 19:46:00,
2013-02-05 11:52:00,63.9,46.9,29.72,WSW,255,0.0,0.0,54,0.00,,,0.00,meteohub,2013-02-05 19:52:00,
2013-02-05 11:58:00,64.6,48.0,29.69,WSW,255,0.0,0.0,55,0.00,,,0.00,meteohub,2013-02-05 19:58:00,
2013-02-05 12:04:00,64.2,45.1,29.69,WSW,255,0.0,0.0,50,0.00,,,0.00,meteohub,2013-02-05 20:04:00,
2013-02-05 12:10:00,64.4,45.3,29.69,WSW,255,0.0,0.0,50,0.00,,,0.00,meteohub,2013-02-05 20:10:00,
2013-02-05 12:17:00,64.2,45.1,29.69,SSW,192,3.0,0.0,50,0.00,,,0.00,meteohub,2013-02-05 20:17:00,
2013-02-05 12:23:00,63.9,45.9,29.69,South,181,0.0,4.0,52,0.00,,,0.00,meteohub,2013-02-05 20:23:00,
2013-02-05 12:29:00,63.5,45.0,29.66,South,181,3.0,4.0,51,0.00,,,0.00,meteohub,2013-02-05 20:29:00,
2013-02-05 12:35:00,63.7,46.2,29.66,SSW,195,0.0,4.0,53,0.00,,,0.00,meteohub,2013-02-05 20:35:00,
2013-02-05 12:41:00,64.2,46.8,29.66,SSW,197,0.0,4.0,53,0.00,,,0.00,meteohub,2013-02-05 20:41:00,
2013-02-05 12:47:00,64.4,45.9,29.66,ESE,107,0.0,5.0,51,0.00,,,0.00,meteohub,2013-02-05 20:47:00,
2013-02-05 12:53:00,64.6,45.0,29.66,South,174,0.0,5.0,49,0.00,,,0.00,meteohub,2013-02-05 20:53:00,
2013-02-05 12:59:00,64.0,44.4,29.66,SW,231,5.0,5.0,49,0.00,,,0.00,meteohub,2013-02-05 20:59:00,
2013-02-05 13:05:00,63.9,45.9,29.66,SSW,211,3.0,6.0,52,0.00,,,0.00,meteohub,2013-02-05 21:05:00,
2013-02-05 13:11:00,63.5,46.6,29.66,SSW,213,4.0,6.0,54,0.00,,,0.00,meteohub,2013-02-05 21:11:00,
2013-02-05 13:17:00,63.3,45.9,29.66,South,182,6.0,6.0,53,0.00,,,0.00,meteohub,2013-02-05 21:17:00,
2013-02-05 13:23:00,63.9,45.9,29.66,WSW,240,3.0,8.0,52,0.00,,,0.00,meteohub,2013-02-05 21:23:00,
2013-02-05 13:29:00,64.0,45.5,29.66,SW,222,4.0,8.0,51,0.00,,,0.00,meteohub,2013-02-05 21:29:00,
2013-02-05 13:35:00,64.4,44.8,29.66,NW,319,0.0,5.0,49,0.00,,,0.00,meteohub,2013-02-05 21:35:00,
2013-02-05 13:41:00,64.6,43.9,29.66,WSW,246,0.0,4.0,47,0.00,,,0.00,meteohub,2013-02-05 21:41:00,
2013-02-05 13:48:00,65.8,45.7,29.66,West,272,0.0,4.0,48,0.00,,,0.00,meteohub,2013-02-05 21:48:00,
2013-02-05 13:53:00,65.1,42.6,29.66,WSW,240,0.0,4.0,44,0.00,,,0.00,meteohub,2013-02-05 21:53:00,
2013-02-05 13:59:00,64.2,42.4,29.63,SSW,213,4.0,4.0,45,0.00,,,0.00,meteohub,2013-02-05 21:59:00,
2013-02-05 14:05:00,63.7,43.7,29.63,SW,223,3.0,5.0,48,0.00,,,0.00,meteohub,2013-02-05 22:05:00,
2013-02-05 14:11:00,63.5,44.1,29.63,WSW,254,4.0,5.0,49,0.00,,,0.00,meteohub,2013-02-05 22:11:00,
2013-02-05 14:17:00,63.7,44.2,29.63,SW,235,0.0,5.0,49,0.00,,,0.00,meteohub,2013-02-05 22:17:00,
2013-02-05 14:23:00,63.1,44.8,29.63,SW,219,0.0,5.0,51,0.00,,,0.00,meteohub,2013-02-05 22:23:00,
2013-02-05 14:30:00,63.1,45.1,29.63,SW,235,3.0,4.0,52,0.00,,,0.00,meteohub,2013-02-05 22:30:00,
2013-02-05 14:36:00,63.7,46.8,29.63,WSW,237,0.0,5.0,54,0.00,,,0.00,meteohub,2013-02-05 22:36:00,
2013-02-05 14:42:00,63.7,46.2,29.63,SW,224,3.0,5.0,53,0.00,,,0.00,meteohub,2013-02-05 22:42:00,
2013-02-05 14:48:00,63.3,45.0,29.63,South,183,4.0,5.0,51,0.00,,,0.00,meteohub,2013-02-05 22:48:00,
2013-02-05 14:54:00,63.3,44.4,29.63,SW,229,4.0,6.0,50,0.00,,,0.00,meteohub,2013-02-05 22:54:00,
2013-02-05 15:00:00,63.5,44.6,29.63,SSE,162,3.0,6.0,50,0.00,,,0.00,meteohub,2013-02-05 23:00:00,
2013-02-05 15:06:00,63.1,45.1,29.63,SSW,192,3.0,5.0,52,0.00,,,0.00,meteohub,2013-02-05 23:06:00,
2013-02-05 15:12:00,63.3,45.3,29.63,SSW,193,3.0,5.0,52,0.00,,,0.00,meteohub,2013-02-05 23:12:00,
2013-02-05 15:18:00,63.5,45.0,29.63,SSW,196,4.0,5.0,51,0.00,,,0.00,meteohub,2013-02-05 23:18:00,
2013-02-05 15:24:00,63.7,45.1,29.63,SSW,212,0.0,6.0,51,0.00,,,0.00,meteohub,2013-02-05 23:24:00,
2013-02-05 15:30:00,63.7,44.8,29.63,South,174,5.0,5.0,50,0.00,,,0.00,meteohub,2013-02-05 23:30:00,
2013-02-05 15:36:00,63.5,44.1,29.63,SSW,194,2.0,6.0,49,0.00,,,0.00,meteohub,2013-02-05 23:36:00,
2013-02-05 15:42:00,64.6,43.3,29.60,SE,138,0.0,6.0,46,0.00,,,0.00,meteohub,2013-02-05 23:42:00,
2013-02-05 15:48:00,64.4,42.6,29.60,SW,222,4.0,6.0,45,0.00,,,0.00,meteohub,2013-02-05 23:48:00,
2013-02-05 15:55:00,64.0,42.8,29.60,SSW,200,0.0,6.0,46,0.00,,,0.00,meteohub,2013-02-05 23:55:00,
2013-02-05 16:01:00,63.5,42.3,29.60,South,182,4.0,6.0,46,0.00,,,0.00,meteohub,2013-02-06 00:01:00,
2013-02-05 16:07:00,63.3,42.8,29.60,South,177,4.0,6.0,47,0.00,,,0.00,meteohub,2013-02-06 00:07:00,
2013-02-05 16:13:00,63.0,43.0,29.60,South,188,5.0,5.0,48,0.00,,,0.00,meteohub,2013-02-06 00:13:00,
2013-02-05 16:19:00,63.0,43.5,29.60,South,188,4.0,6.0,49,0.00,,,0.00,meteohub,2013-02-06 00:19:00,
2013-02-05 16:25:00,62.6,43.2,29.60,SW,216,4.0,6.0,49,0.00,,,0.00,meteohub,2013-02-06 00:25:00,
2013-02-05 16:31:00,62.6,43.7,29.63,SSW,206,3.0,6.0,50,0.00,,,0.00,meteohub,2013-02-06 00:31:00,
2013-02-05 16:37:00,62.8,43.9,29.63,SW,218,4.0,6.0,50,0.00,,,0.00,meteohub,2013-02-06 00:37:00,
2013-02-05 16:43:00,62.6,44.2,29.63,SSW,195,3.0,6.0,51,0.00,,,0.00,meteohub,2013-02-06 00:43:00,
2013-02-05 16:49:00,62.4,44.1,29.63,SW,218,3.0,4.0,51,0.00,,,0.00,meteohub,2013-02-06 00:49:00,
2013-02-05 16:55:00,62.4,44.6,29.63,SW,227,3.0,5.0,52,0.00,,,0.00,meteohub,2013-02-06 00:55:00,
2013-02-05 17:01:00,62.4,44.6,29.63,SSW,204,2.0,5.0,52,0.00,,,0.00,meteohub,2013-02-06 01:01:00,
2013-02-05 17:07:00,62.4,44.6,29.63,SW,219,0.0,4.0,52,0.00,,,0.00,meteohub,2013-02-06 01:07:00,
2013-02-05 17:13:00,62.2,44.4,29.63,SW,223,0.0,4.0,52,0.00,,,0.00,meteohub,2013-02-06 01:13:00,
2013-02-05 17:19:00,62.2,45.0,29.63,SSW,209,4.0,6.0,53,0.00,,,0.00,meteohub,2013-02-06 01:19:00,
2013-02-05 17:25:00,62.1,44.8,29.63,SW,235,0.0,6.0,53,0.00,,,0.00,meteohub,2013-02-06 01:25:00,
2013-02-05 17:31:00,62.2,45.3,29.63,SSW,201,5.0,5.0,54,0.00,,,0.00,meteohub,2013-02-06 01:31:00,
2013-02-05 17:37:00,62.2,45.3,29.63,SSW,196,0.0,5.0,54,0.00,,,0.00,meteohub,2013-02-06 01:37:00,
2013-02-05 17:43:00,62.1,45.1,29.63,SW,219,0.0,5.0,54,0.00,,,0.00,meteohub,2013-02-06 01:43:00,
2013-02-05 17:49:00,62.1,45.1,29.63,SW,218,0.0,5.0,54,0.00,,,0.00,meteohub,2013-02-06 01:49:00,
2013-02-05 17:55:00,62.1,44.8,29.63,SW,218,0.0,3.0,53,0.00,,,0.00,meteohub,2013-02-06 01:55:00,
2013-02-05 18:01:00,62.1,44.2,29.63,SSW,211,0.0,0.0,52,0.00,,,0.00,meteohub,2013-02-06 02:01:00,
2013-02-05 18:07:00,62.1,44.2,29.63,SSW,199,0.0,0.0,52,0.00,,,0.00,meteohub,2013-02-06 02:07:00,
2013-02-05 18:14:00,62.1,43.7,29.63,SSW,204,3.0,0.0,51,0.00,,,0.00,meteohub,2013-02-06 02:14:00,
2013-02-05 18:20:00,62.1,43.7,29.63,SSW,193,0.0,0.0,51,0.00,,,0.00,meteohub,2013-02-06 02:20:00,
2013-02-05 18:26:00,61.9,44.1,29.63,SSW,211,0.0,4.0,52,0.00,,,0.00,meteohub,2013-02-06 02:26:00,
2013-02-05 18:32:00,62.1,44.2,29.63,SSW,203,0.0,3.0,52,0.00,,,0.00,meteohub,2013-02-06 02:32:00,
2013-02-05 18:38:00,62.1,43.7,29.63,South,184,0.0,0.0,51,0.00,,,0.00,meteohub,2013-02-06 02:38:00,
2013-02-05 18:44:00,62.1,43.7,29.63,South,172,3.0,4.0,51,0.00,,,0.00,meteohub,2013-02-06 02:44:00,
2013-02-05 18:50:00,62.1,43.7,29.63,South,172,0.0,4.0,51,0.00,,,0.00,meteohub,2013-02-06 02:50:00,
2013-02-05 18:56:00,62.1,43.2,29.66,SSW,211,0.0,4.0,50,0.00,,,0.00,meteohub,2013-02-06 02:56:00,
2013-02-05 19:02:00,62.1,43.7,29.66,South,182,0.0,4.0,51,0.00,,,0.00,meteohub,2013-02-06 03:02:00,
2013-02-05 19:08:00,61.9,43.0,29.66,South,183,0.0,4.0,50,0.00,,,0.00,meteohub,2013-02-06 03:08:00,
2013-02-05 19:14:00,61.9,43.5,29.66,South,183,0.0,0.0,51,0.00,,,0.00,meteohub,2013-02-06 03:14:00,
2013-02-05 19:20:00,61.9,43.0,29.66,South,182,0.0,0.0,50,0.00,,,0.00,meteohub,2013-02-06 03:20:00,
2013-02-05 19:26:00,62.1,43.7,29.66,SSW,204,0.0,0.0,51,0.00,,,0.00,meteohub,2013-02-06 03:26:00,
2013-02-05 19:32:00,61.9,43.5,29.66,SE,132,0.0,0.0,51,0.00,,,0.00,meteohub,2013-02-06 03:32:00,
2013-02-05 19:38:00,61.9,43.0,29.66,SE,132,0.0,3.0,50,0.00,,,0.00,meteohub,2013-02-06 03:38:00,
2013-02-05 19:44:00,61.9,43.0,29.66,South,173,0.0,3.0,50,0.00,,,0.00,meteohub,2013-02-06 03:44:00,
2013-02-05 19:50:00,61.9,43.0,29.66,South,173,0.0,3.0,50,0.00,,,0.00,meteohub,2013-02-06 03:50:00,
2013-02-05 19:56:00,61.9,43.0,29.66,South,173,0.0,3.0,50,0.00,,,0.00,meteohub,2013-02-06 03:56:00,
2013-02-05 20:02:00,61.9,43.0,29.66,SSW,192,0.0,0.0,50,0.00,,,0.00,meteohub,2013-02-06 04:02:00,
2013-02-05 20:08:00,61.9,43.0,29.66,SSE,160,0.0,0.0,50,0.00,,,0.00,meteohub,2013-02-06 04:08:00,
2013-02-05 20:14:00,61.9,43.0,29.66,SSE,160,0.0,0.0,50,0.00,,,0.00,meteohub,2013-02-06 04:14:00,
2013-02-05 20:21:00,61.9,43.0,29.66,East,101,3.0,4.0,50,0.00,,,0.00,meteohub,2013-02-06 04:21:00,
2013-02-05 20:27:00,61.9,43.0,29.66,SE,132,0.0,6.0,50,0.00,,,0.00,meteohub,2013-02-06 04:27:00,
2013-02-05 20:32:00,61.9,43.0,29.66,SSE,159,3.0,6.0,50,0.00,,,0.00,meteohub,2013-02-06 04:32:00,
2013-02-05 20:37:00,61.9,43.0,29.66,East,101,0.0,6.0,50,0.00,,,0.00,meteohub,2013-02-06 04:37:00,
2013-02-05 20:43:00,61.9,43.5,29.66,South,171,0.0,4.0,51,0.00,,,0.00,meteohub,2013-02-06 04:43:00,
2013-02-05 20:49:00,61.9,43.5,29.66,South,171,0.0,4.0,51,0.00,,,0.00,meteohub,2013-02-06 04:49:00,
2013-02-05 20:55:00,61.9,43.5,29.66,SSE,157,0.0,0.0,51,0.00,,,0.00,meteohub,2013-02-06 04:55:00,
2013-02-05 21:01:00,61.9,43.5,29.66,SSE,159,0.0,0.0,51,0.00,,,0.00,meteohub,2013-02-06 05:01:00,
2013-02-05 21:05:00,61.9,43.0,29.66,South,178,0.0,0.0,50,0.00,,,0.00,meteohub,2013-02-06 05:05:00,
2013-02-05 21:09:00,61.9,43.0,29.66,SE,141,0.0,0.0,50,0.00,,,0.00,meteohub,2013-02-06 05:09:00,
2013-02-05 21:13:00,61.9,42.4,29.66,SE,146,2.0,0.0,49,0.00,,,0.00,meteohub,2013-02-06 05:13:00,
2013-02-05 21:19:00,61.9,42.4,29.66,SE,142,0.0,4.0,49,0.00,,,0.00,meteohub,2013-02-06 05:19:00,
2013-02-05 21:25:00,61.9,42.4,29.66,East,101,4.0,6.0,49,0.00,,,0.00,meteohub,2013-02-06 05:25:00,
2013-02-05 21:31:00,61.9,42.4,29.66,ESE,115,2.0,6.0,49,0.00,,,0.00,meteohub,2013-02-06 05:31:00,
2013-02-05 21:37:00,61.9,42.4,29.66,East,92,0.0,6.0,49,0.00,,,0.00,meteohub,2013-02-06 05:37:00,
2013-02-05 21:43:00,61.9,42.4,29.66,ESE,112,0.0,5.0,49,0.00,,,0.00,meteohub,2013-02-06 05:43:00,
2013-02-05 21:49:00,61.9,42.4,29.66,East,96,3.0,4.0,49,0.00,,,0.00,meteohub,2013-02-06 05:49:00,
2013-02-05 21:55:00,61.9,42.4,29.66,East,91,0.0,4.0,49,0.00,,,0.00,meteohub,2013-02-06 05:55:00,
2013-02-05 22:01:00,61.9,42.4,29.66,ESE,102,0.0,4.0,49,0.00,,,0.00,meteohub,2013-02-06 06:01:00,
2013-02-05 22:07:00,61.9,43.0,29.66,ESE,102,0.0,4.0,50,0.00,,,0.00,meteohub,2013-02-06 06:07:00,
2013-02-05 22:13:00,61.9,43.0,29.66,ESE,104,0.0,0.0,50,0.00,,,0.00,meteohub,2013-02-06 06:13:00,
2013-02-05 22:19:00,61.9,43.0,29.66,SSE,152,0.0,4.0,50,0.00,,,0.00,meteohub,2013-02-06 06:19:00,
2013-02-05 22:25:00,61.9,43.0,29.66,East,95,0.0,4.0,50,0.00,,,0.00,meteohub,2013-02-06 06:25:00,
2013-02-05 22:31:00,61.7,42.3,29.66,SSE,147,0.0,4.0,49,0.00,,,0.00,meteohub,2013-02-06 06:31:00,
2013-02-05 22:37:00,61.7,42.3,29.66,ESE,111,0.0,3.0,49,0.00,,,0.00,meteohub,2013-02-06 06:37:00,
2013-02-05 22:43:00,61.7,42.3,29.66,ESE,109,4.0,4.0,49,0.00,,,0.00,meteohub,2013-02-06 06:43:00,
2013-02-05 22:49:00,61.7,42.3,29.66,ESE,118,0.0,4.0,49,0.00,,,0.00,meteohub,2013-02-06 06:49:00,
2013-02-05 22:55:00,61.7,42.3,29.66,ESE,118,0.0,6.0,49,0.00,,,0.00,meteohub,2013-02-06 06:55:00,
2013-02-05 23:01:00,61.7,42.3,29.66,ESE,118,0.0,2.0,49,0.00,,,0.00,meteohub,2013-02-06 07:01:00,
2013-02-05 23:07:00,61.5,42.3,29.66,ESE,118,0.0,0.0,49,0.00,,,0.00,meteohub,2013-02-06 07:07:00,
2013-02-05 23:13:00,61.5,41.7,29.66,East,97,3.0,0.0,48,0.00,,,0.00,meteohub,2013-02-06 07:13:00,
2013-02-05 23:20:00,61.7,41.9,29.66,East,87,0.0,3.0,48,0.00,,,0.00,meteohub,2013-02-06 07:20:00,
2013-02-05 23:26:00,61.5,41.7,29.66,ESE,119,0.0,3.0,48,0.00,,,0.00,meteohub,2013-02-06 07:26:00,
2013-02-05 23:32:00,61.5,41.7,29.66,ENE,74,3.0,4.0,48,0.00,,,0.00,meteohub,2013-02-06 07:32:00,
2013-02-05 23:38:00,61.5,41.7,29.66,East,86,4.0,4.0,48,0.00,,,0.00,meteohub,2013-02-06 07:38:00,
2013-02-05 23:44:00,61.5,41.7,29.66,ESE,104,0.0,5.0,48,0.00,,,0.00,meteohub,2013-02-06 07:44:00,
2013-02-05 23:50:00,61.3,41.5,29.66,ESE,104,0.0,5.0,48,0.00,,,0.00,meteohub,2013-02-06 07:50:00,
2013-02-05 23:56:00,61.3,41.5,29.66,ESE,104,0.0,0.0,48,0.00,,,0.00,meteohub,2013-02-06 07:56:00,